#timestamp,LO_Frequency,Hit,StdDev 
1636329615.7,286047002.8,N
1636329635.6,286047000.1,N
1636329655.4,286047002.3,N
1636329675.2,286047002.5,N
1636329695.1,286047002.6,N
1636329696.0,286047002.6,N
1636329715.8,286047002.8,N
1636329735.6,286047000.9,N
1636329755.5,286047000.7,N
1636329775.3,286047002.5,N
1636329795.1,286047000.0,N
1636329815.9,286047000.2,N
1636329835.7,286047000.4,N
1636329855.5,286047000.5,N
1636329875.4,286047000.5,N
1636329895.2,286047000.6,N
1636329915.0,286047000.3,N
1636329915.9,286047000.3,N
1636329935.8,286046999.7,N
1636329955.6,286047002.8,N
1636329975.4,286047000.2,N
1636329995.3,286047000.1,N
1636330015.1,286046999.7,N
1636330016.0,286046999.7,N
1636330035.8,286046998.1,N
1636330055.7,286047000.7,N
1636330075.5,286047000.3,N
1636330095.3,286047000.0,N
1636330115.2,286047000.1,N
1636330135.9,286047000.1,N
1636330155.7,286047000.1,N
1636330175.6,286046999.9,N
1636330195.4,286047002.3,N
1636330215.2,286047002.1,N
1636330235.1,286047002.3,N
1636330236.0,286047002.3,N
1636330255.8,286047002.4,N
1636330275.6,286047002.5,N
1636330295.5,286047002.2,N
1636330315.3,286047002.3,N
1636330335.1,286047002.6,N
1636330355.9,286047002.2,N
1636330375.7,286047002.2,N
1636330395.5,286046999.9,N
1636330415.4,286047000.3,N
1636330435.2,286047002.8,N
1636330455.0,286047002.6,N
1636330455.9,286047002.6,N
1636330475.8,286047002.3,N
1636330495.6,286047001.5,N
1636330515.4,286047004.0,Y
1636330535.3,286047000.4,P
1636330555.1,286047001.4,P
1636330575.8,286047002.0,P
1636330595.7,286047002.7,Y
1636330615.5,286047000.0,P
1636330635.3,286047000.7,N
1636330655.2,286047000.3,N
1636330675.0,286047000.1,N
1636330675.9,286047000.1,N
1636330695.7,286046999.9,N
1636330715.6,286047001.2,N
1636330735.4,286046998.2,Y
1636330755.2,286046998.3,P
1636330775.1,286047000.8,N
1636330776.0,286047000.8,N
1636330795.8,286046999.0,N
1636330815.6,286046998.3,N
1636330835.5,286046998.1,N
1636330855.3,286046998.1,N
1636330875.1,286046998.4,N
1636330895.9,286046999.5,N
1636330915.7,286046998.9,N
1636330935.5,286046998.7,N
1636330955.4,286046999.2,N
1636330975.2,286046996.6,Y
1636330995.0,286046998.4,P
1636330995.9,286046998.4,P
1636331015.8,286046998.1,P
1636331035.6,286047000.6,N
1636331055.4,286046999.7,N
1636331075.3,286047000.6,N
1636331095.1,286047000.4,N
1636331115.8,286046998.2,N
1636331135.7,286046999.4,N
1636331155.5,286046999.1,N
1636331175.3,286046998.2,N
1636331195.2,286046998.8,N
1636331215.0,286047001.2,N
1636331215.9,286047001.2,N
1636331235.7,286046998.7,N
1636331255.6,286046999.0,N
1636331275.4,286047001.0,N
1636331295.2,286047000.9,N
1636331315.1,286046998.4,N
1636331316.0,286046998.4,N
1636331335.8,286046998.2,N
1636331355.6,286047000.5,N
1636331375.5,286047000.4,N
1636331395.3,286046998.5,N
1636331415.1,286046998.4,N
1636331435.9,286046998.6,N
1636331455.7,286046996.5,Y
1636331475.5,286046998.9,P
1636331495.4,286046998.6,P
1636331515.2,286047000.6,N
1636331535.0,286046998.4,N
1636331535.9,286046998.4,N
1636331555.8,286046998.4,N
1636331575.6,286046998.2,N
1636331595.4,286046998.1,N
1636331615.3,286047000.6,N
1636331635.1,286047001.0,N
1636331655.8,286047001.2,N
1636331675.7,286046998.8,N
1636331695.5,286046998.6,N
1636331715.3,286046998.5,N
1636331735.2,286046998.9,N
1636331755.0,286046998.9,N
1636331755.9,286046998.9,N
1636331775.7,286047000.7,N
1636331795.6,286047000.9,N
1636331815.4,286047000.4,N
1636331835.2,286047000.1,N
1636331855.1,286047000.1,N
1636331856.0,286047000.1,N
1636331875.8,286047000.7,N
1636331895.6,286047000.9,N
1636331915.5,286047000.6,N
1636331935.3,286047000.7,N
1636331955.1,286047001.0,N
1636331975.9,286047001.0,N
1636331995.7,286047000.0,N
1636332015.5,286046999.9,N
1636332035.4,286047000.3,N
1636332055.2,286047000.6,N
1636332075.0,286047002.6,N
1636332075.9,286047002.6,N
1636332095.8,286047000.5,N
1636332115.6,286047002.8,N
1636332135.4,286047002.3,N
1636332155.3,286047000.0,N
1636332175.1,286047000.7,N
1636332195.8,286047000.4,N
1636332215.7,286047000.1,N
1636332235.5,286047000.1,N
1636332255.3,286047000.0,N
1636332275.2,286047000.3,N
1636332295.0,286047002.4,N
1636332295.9,286047002.4,N
1636332315.7,286047000.6,N
1636332335.6,286047000.5,N
1636332355.4,286046999.9,N
1636332375.2,286047000.6,N
1636332395.1,286047000.3,N
1636332396.0,286047000.3,N
1636332415.8,286046999.7,N
1636332435.6,286047000.2,N
1636332455.5,286047000.5,N
1636332475.3,286046999.7,N
1636332495.1,286047000.4,N
1636332515.9,286047002.7,N
1636332535.7,286047002.0,N
1636332555.5,286047002.8,N
1636332575.4,286047002.4,N
1636332595.2,286047002.1,N
1636332615.0,286047002.4,N
1636332615.9,286047002.4,N
1636332635.8,286047002.4,N
1636332655.6,286047000.4,N
1636332675.4,286047002.1,N
1636332695.3,286047002.3,N
1636332715.1,286047001.6,N
1636332735.8,286047001.8,N
1636332755.7,286047002.7,N
1636332775.5,286047000.4,N
1636332795.3,286047000.3,N
1636332815.2,286047002.8,N
1636332835.0,286047002.7,N
1636332835.9,286047002.7,N
1636332855.7,286047002.5,N
1636332875.6,286047004.3,Y
1636332895.4,286046999.7,P
1636332915.2,286047000.2,N
1636332935.1,286047000.2,N
1636332936.0,286047000.2,N
1636332955.8,286047000.9,N
1636332975.7,286047000.6,N
1636332995.5,286047000.9,N
1636333015.3,286047000.7,N
1636333035.1,286047001.0,N
1636333055.9,286046998.6,N
1636333075.7,286046998.5,N
1636333095.5,286047001.2,N
1636333115.4,286046999.3,N
1636333135.2,286047001.1,N
1636333155.0,286047000.6,N
1636333156.0,286047000.6,N
1636333175.8,286047000.6,N
1636333195.6,286047000.4,N
